Weather History for South Hill, VA

Change the Weather History Date:

Friday, December 14, 2012

  Actual Average (KEMV) Record (KEMV)
Temperature  
Mean Temperature 40 °F -  
Max Temperature 59 °F 50 °F 72 °F (1984)
Min Temperature 21 °F 28 °F 12 °F (1982)
Degree Days  
Heating Degree Days 25    
Moisture  
Dew Point 30 °F    
Average Humidity 81    
Maximum Humidity 100    
Minimum Humidity 38    
Precipitation  
Precipitation 0.00 in - - ()
Sea Level Pressure  
Sea Level Pressure 30.35 in    
Wind  
Wind Speed 1 mph (SW)    
Max Wind Speed 6 mph    
Max Gust Speed -    
Visibility 10 miles    
Events      
Averages and records for this station are not official NWS values.
T = Trace of Precipitation, MM = Missing Value Source: NWS Daily Summary

Daily Weather History Graph

Daily Weather History Graph

Search for Another Location

Airport:

Trip Planner

Search our weather history database for the weather conditions in past years. The results will help you decide how hot, cold, wet, or windy it might be!

Date:

Astronomy

Dec. 14, 2012 Rise Set
Actual Time 7:17 AM EST 4:57 PM EST
Civil Twilight 6:48 AM EST 5:26 PM EST
Nautical Twilight 6:15 AM EST 5:58 PM EST
Astronomical Twilight 5:44 AM EST 6:30 PM EST
Moon 8:21 AM EST (12/14) 6:45 PM EST (12/14)
Length of Visible Light 10h 38m
Length of Day
9h 40m
Waxing Crescent, 3% of the Moon is Illuminated
Dec 14
Waxing Crescent
Dec 20
First Quarter
Dec 28
Full
Jan 4
Last Quarter
Jan 11
New

Hourly Weather History & Observations

Time (EST) Temp. Windchill Dew Point Humidity Pressure Visibility Wind Dir Wind Speed Gust Speed Precip Events Conditions
12:15 AM 28.4 °F - 28.4 °F 100% 30.40 in 10.0 mi Calm Calm - N/A   Clear
12:55 AM 28.4 °F - 28.4 °F 100% 30.39 in 10.0 mi Calm Calm - N/A   Clear
1:15 AM 26.6 °F - 26.6 °F 100% 30.39 in 10.0 mi Calm Calm - N/A   Clear
1:35 AM 26.6 °F - 26.6 °F 100% 30.39 in 10.0 mi Calm Calm - N/A   Clear
1:55 AM 26.6 °F - 26.6 °F 100% 30.39 in 10.0 mi Calm Calm - N/A   Clear
2:15 AM 26.6 °F - 26.6 °F 100% 30.39 in 10.0 mi Calm Calm - N/A   Clear
3:55 AM 24.8 °F - 24.8 °F 100% 30.38 in 10.0 mi Calm Calm - N/A   Clear
4:15 AM 24.8 °F - 24.8 °F 100% 30.38 in 10.0 mi Calm Calm - N/A   Clear
4:55 AM 26.6 °F - 26.6 °F 100% 30.39 in 10.0 mi Calm Calm - N/A   Clear
5:15 AM 24.8 °F - 24.8 °F 100% 30.39 in 10.0 mi Calm Calm - N/A   Clear
5:35 AM 23.0 °F - 23.0 °F 100% 30.39 in 10.0 mi Calm Calm - N/A   Clear
5:55 AM 23.0 °F - 23.0 °F 100% 30.39 in 10.0 mi Calm Calm - N/A   Clear
6:15 AM 23.0 °F - 23.0 °F 100% 30.39 in 10.0 mi Calm Calm - N/A   Clear
6:35 AM 21.2 °F - 21.2 °F 100% 30.39 in 10.0 mi Calm Calm - N/A   Clear
6:55 AM 21.2 °F - 21.2 °F 100% 30.39 in 10.0 mi Calm Calm - N/A   Clear
7:15 AM 21.2 °F - 21.2 °F 100% 30.39 in 10.0 mi Calm Calm - N/A   Clear
7:35 AM 21.2 °F - 21.2 °F 100% 30.40 in 10.0 mi Calm Calm - N/A   Clear
7:55 AM 23.0 °F - 23.0 °F 100% 30.41 in 10.0 mi Calm Calm - N/A   Clear
8:15 AM 24.8 °F - 24.8 °F 100% 30.41 in 10.0 mi Calm Calm - N/A   Clear
8:35 AM 33.8 °F - 33.8 °F 100% 30.41 in 10.0 mi Calm Calm - N/A   Clear
8:55 AM 39.2 °F - 37.4 °F 93% 30.41 in 10.0 mi Calm Calm - N/A   Clear
9:15 AM 44.6 °F - 35.6 °F 71% 30.40 in 10.0 mi Calm Calm - N/A   Clear
9:55 AM 46.4 °F 44.3 °F 37.4 °F 71% 30.40 in 10.0 mi SW 4.6 mph - N/A   Clear
10:15 AM 46.4 °F 44.3 °F 35.6 °F 66% 30.40 in 10.0 mi South 4.6 mph - N/A   Clear
10:35 AM 48.2 °F - 37.4 °F 66% 30.41 in 10.0 mi West 4.6 mph - N/A   Clear
10:55 AM 50.0 °F - 37.4 °F 62% 30.40 in 10.0 mi SW 5.8 mph - N/A   Clear
11:15 AM 51.8 °F - 37.4 °F 58% 30.39 in 10.0 mi SSW 4.6 mph - N/A   Clear
11:55 AM 55.4 °F - 35.6 °F 47% 30.36 in 10.0 mi SSW 4.6 mph - N/A   Clear
12:15 PM 55.4 °F - 35.6 °F 47% 30.36 in 10.0 mi West 4.6 mph - N/A   Clear
12:55 PM 55.4 °F - 33.8 °F 44% 30.35 in 10.0 mi WSW 4.6 mph - N/A   Clear
1:15 PM 57.2 °F - 33.8 °F 41% 30.33 in 10.0 mi West 3.5 mph - N/A   Clear
1:35 PM 57.2 °F - 33.8 °F 41% 30.32 in 10.0 mi South 3.5 mph - N/A   Clear
1:55 PM 57.2 °F - 33.8 °F 41% 30.31 in 10.0 mi West 3.5 mph - N/A   Clear
2:15 PM 59.0 °F - 35.6 °F 42% 30.31 in 10.0 mi SW 4.6 mph - N/A   Clear
2:35 PM 59.0 °F - 33.8 °F 39% 30.30 in 10.0 mi WSW 4.6 mph - N/A   Clear
2:55 PM 57.2 °F - 33.8 °F 41% 30.30 in 10.0 mi Calm Calm - N/A   Clear
3:15 PM 57.2 °F - 32.0 °F 38% 30.30 in 10.0 mi SW 3.5 mph - N/A   Clear
3:35 PM 57.2 °F - 33.8 °F 41% 30.30 in 10.0 mi Calm Calm - N/A   Clear
3:55 PM 55.4 °F - 32.0 °F 41% 30.30 in 10.0 mi SSW 3.5 mph - N/A   Clear
4:15 PM 51.8 °F - 32.0 °F 47% 30.29 in 10.0 mi SSW 3.5 mph - N/A   Clear
4:35 PM 51.8 °F - 32.0 °F 47% 30.29 in 10.0 mi Calm Calm - N/A   Clear
4:55 PM 48.2 °F - 32.0 °F 54% 30.29 in 10.0 mi Calm Calm - N/A   Clear
5:15 PM 42.8 °F - 33.8 °F 70% 30.29 in 10.0 mi Calm Calm - N/A   Clear
5:35 PM 37.4 °F - 32.0 °F 81% 30.30 in 10.0 mi Calm Calm - N/A   Clear
5:55 PM 37.4 °F - 30.2 °F 75% 30.29 in 10.0 mi Calm Calm - N/A   Clear
6:15 PM 35.6 °F - 30.2 °F 81% 30.29 in 10.0 mi Calm Calm - N/A   Clear
6:35 PM 35.6 °F - 32.0 °F 87% 30.30 in 10.0 mi Calm Calm - N/A   Clear
6:55 PM 33.8 °F - 30.2 °F 87% 30.30 in 10.0 mi Calm Calm - N/A   Clear
7:15 PM 33.8 °F - 30.2 °F 87% 30.30 in 10.0 mi Calm Calm - N/A   Clear
7:35 PM 32.0 °F - 30.2 °F 93% 30.29 in 10.0 mi Calm Calm - N/A   Clear
7:55 PM 30.2 °F - 30.2 °F 100% 30.30 in 10.0 mi Calm Calm - N/A   Clear
8:15 PM 30.2 °F - 30.2 °F 100% 30.30 in 10.0 mi Calm Calm - N/A   Clear
8:35 PM 30.2 °F - 28.4 °F 93% 30.30 in 10.0 mi Calm Calm - N/A   Clear
8:55 PM 28.4 °F - 28.4 °F 100% 30.31 in 10.0 mi Calm Calm - N/A   Clear
9:15 PM 28.4 °F - 28.4 °F 100% 30.30 in 10.0 mi Calm Calm - N/A   Clear
9:35 PM 28.4 °F - 28.4 °F 100% 30.30 in 10.0 mi Calm Calm - N/A   Clear
9:55 PM 28.4 °F - 28.4 °F 100% 30.32 in 10.0 mi Calm Calm - N/A   Clear
10:15 PM 28.4 °F - 28.4 °F 100% 30.32 in 10.0 mi Calm Calm - N/A   Clear
10:35 PM 28.4 °F - 28.4 °F 100% 30.31 in 10.0 mi Calm Calm - N/A   Clear
10:55 PM 28.4 °F - 28.4 °F 100% 30.32 in 10.0 mi Calm Calm - N/A   Clear
11:15 PM 30.2 °F - 30.2 °F 100% 30.31 in 10.0 mi Calm Calm - N/A   Clear
11:35 PM 28.4 °F - 28.4 °F 100% 30.31 in 10.0 mi Calm Calm - N/A   Clear
11:55 PM 28.4 °F - 28.4 °F 100% 30.30 in 10.0 mi Calm Calm - N/A   Clear